EW1898 Weather Reports


time (UTC)temp
C
wind
direction
speed
KPH
gust
KPH
rain 1hr
cm
rain 24hr
cm
rain mn
cm
humidity
%
barometer
mb
20200220001652 0 321 3.2 12.9 0.00 0.05 0.05 42 1023.7
20200220000134 0 317 4.8 12.9 0.00 0.05 0.05 42 1023.6
20200219234625 0 289 4.8 12.9 0.00 0.05 0.05 42 1023.5
20200219233106 0 314 3.2 8.0 0.00 0.05 0.05 43 1023.3
20200219231612 0 319 3.2 6.4 0.00 0.05 0.05 40 1023.1
20200219230042 0 317 3.2 8.0 0.00 0.05 0.05 39 1022.8
20200219224649 0 305 3.2 8.0 0.00 0.05 0.05 37 1022.5
20200219223113 0 298 4.8 19.3 0.00 0.05 0.05 36 1022.2
20200219221637 1 289 8.0 24.1 0.00 0.05 0.05 34 1022.0
20200219220057 1 331 8.0 24.1 0.00 0.05 0.05 36 1021.8
20200219214548 1 328 8.0 19.3 0.00 0.05 0.05 35 1021.5
20200219213038 1 297 6.4 24.1 0.00 0.05 0.05 36 1021.3
20200219211550 1 341 9.7 30.6 0.00 0.05 0.05 34 1021.1
20200219210027 2 328 11.3 30.6 0.00 0.05 0.05 34 1021.0
20200219204520 2 346 11.3 29.0 0.00 0.05 0.05 36 1020.7
20200219203040 2 326 9.7 24.1 0.00 0.05 0.05 38 1020.5
20200219201518 2 348 6.4 24.1 0.00 0.05 0.05 37 1020.4
20200219200014 2 302 17.7 29.0 0.00 0.05 0.05 36 1020.0
20200219194534 2 297 9.7 33.8 0.00 0.05 0.05 37 1019.8
20200219193232 2 318 16.1 40.2 0.00 0.05 0.05 36 1019.4
20200219191611 2 354 9.7 30.6 0.00 0.05 0.05 40 1019.3
20200219190220 2 329 9.7 27.4 0.03 0.05 0.05 42 1019.3
20200219184649 2 338 14.5 30.6 0.03 0.05 0.05 43 1019.0
20200219183155 2 322 11.3 33.8 0.03 0.05 0.05 42 1018.9
20200219181618 2 336 14.5 33.8 0.03 0.05 0.05 41 1018.8
20200219180138 2 293 8.0 24.1 0.00 0.03 0.03 46 1018.8
20200219174634 2 322 11.3 32.2 0.00 0.03 0.03 48 1018.8
20200219173146 2 324 11.3 32.2 0.00 0.03 0.03 50 1018.7
20200219171716 3 340 11.3 30.6 0.03 0.03 0.03 51 1018.7
20200219170105 3 310 6.4 30.6 0.03 0.03 0.03 51 1018.5
20200219164619 3 317 9.7 32.2 0.03 0.03 0.03 54 1018.5
20200219163136 3 329 11.3 25.7 0.03 0.03 0.03 55 1018.5
20200219161546 3 317 11.3 25.7 0.00 0.00 0.00 58 1018.5
20200219160130 2 317 6.4 20.9 0.00 0.00 0.00 63 1018.5
20200219154605 3 347 4.8 17.7 0.00 0.00 0.00 64 1018.4
20200219153112 2 344 8.0 20.9 0.00 0.00 0.00 66 1018.4
20200219151550 2 324 9.7 22.5 0.00 0.00 0.00 68 1018.4
20200219150128 2 292 8.0 24.1 0.00 0.00 0.00 72 1018.4
20200219144615 2 296 1.6 16.1 0.00 0.00 0.00 76 1018.2
20200219143051 2 307 1.6 8.0 0.00 0.00 0.00 77 1018.2
20200219141545 2 314 1.6 4.8 0.00 0.00 0.00 79 1018.1
20200219140056 2 287 1.6 6.4 0.00 0.00 0.00 78 1017.9
20200219134521 2 291 1.6 11.3 0.00 0.00 0.00 78 1017.7
20200219133038 2 302 1.6 9.7 0.00 0.00 0.00 79 1017.6
20200219131516 2 337 3.2 9.7 0.00 0.00 0.00 79 1017.5
20200219130046 1 323 3.2 11.3 0.00 0.00 0.00 82 1017.3
20200219124507 1 326 6.4 9.7 0.00 0.00 0.00 84 1017.0
20200219123002 1 295 3.2 8.0 0.00 0.00 0.00 90 1016.9
20200219121714 1 317 4.8 9.7 0.00 0.00 0.00 94 1016.8
20200219114653 1 312 3.2 12.9 0.00 0.00 0.00 99 1016.1
20200219113126 1 318 3.2 6.4 0.00 0.00 0.00 99 1015.8
20200219111715 1 296 0.0 6.4 0.00 0.00 0.00 99 1015.6
20200219110143 1 299 0.0 4.8 0.00 0.00 0.00 99 1015.5
20200219104717 1 330 3.2 6.4 0.00 0.00 0.00 99 1015.2
20200219103123 1 305 3.2 9.7 0.00 0.00 0.00 99 1015.1
20200219101559 1 295 1.6 4.8 0.00 0.00 0.00 99 1015.0
20200219100102 1 318 1.6 6.4 0.00 0.00 0.00 99 1014.9
20200219094602 1 322 1.6 6.4 0.00 0.00 0.00 99 1014.5
20200219093135 1 324 3.2 8.0 0.00 0.00 0.00 99 1014.2
20200219091601 1 319 1.6 6.4 0.00 0.00 0.00 99 1014.1
20200219090131 1 305 1.6 8.0 0.00 0.00 0.00 99 1014.1
20200219084543 1 294 0.0 6.4 0.00 0.00 0.00 99 1013.8
20200219083059 1 305 1.6 6.4 0.00 0.00 0.00 99 1013.7
20200219081545 1 323 3.2 6.4 0.00 0.00 0.00 99 1013.7
20200219080049 1 295 0.0 1.6 0.00 0.00 0.00 99 1013.5
20200219074534 1 299 0.0 1.6 0.00 0.00 0.00 99 1013.3
20200219073051 1 299 0.0 3.2 0.00 0.00 0.00 99 1012.8
20200219071541 0 291 0.0 1.6 0.00 0.00 0.00 99 1012.8
20200219070031 0 291 0.0 1.6 0.00 0.00 0.00 99 1013.3
20200219064525 0 291 0.0 3.2 0.00 0.00 0.00 99 1013.3
20200219063035 0 291 0.0 3.2 0.00 0.00 0.00 99 1012.9
20200219061540 0 291 0.0 1.6 0.00 0.00 0.00 99 1012.8
20200219060020 0 291 0.0 0.0 0.00 0.00 0.00 99 1012.6
20200219054523 0 291 0.0 1.6 0.00 0.00 0.00 99 1013.1
20200219053030 0 291 0.0 0.0 0.00 0.00 0.00 99 1012.9
20200219051539 0 291 0.0 1.6 0.00 0.00 0.00 99 1012.8
20200219050015 0 291 0.0 1.6 0.00 0.00 0.00 99 1012.8
20200219044531 0 291 0.0 1.6 0.00 0.00 0.00 99 1013.2
20200219043024 0 291 0.0 1.6 0.00 0.00 0.00 99 1013.4
20200219041512 0 291 0.0 3.2 0.00 0.00 0.00 99 1013.2
20200219040032 0 329 1.6 8.0 0.00 0.00 0.00 99 1013.4
20200219034533 0 314 0.0 3.2 0.00 0.00 0.00 99 1013.4
20200219033011 0 314 0.0 1.6 0.00 0.00 0.00 99 1013.4
20200219031526 0 315 0.0 1.6 0.00 0.00 0.00 99 1013.5
20200219030006 0 322 1.6 6.4 0.00 0.00 0.00 99 1013.9
20200219024506 0 306 0.0 3.2 0.00 0.00 0.00 99 1014.0
20200219023002 0 306 0.0 3.2 0.00 0.00 0.00 99 1014.4
20200219021705 0 306 0.0 3.2 0.00 0.00 0.00 99 1014.6
20200219020115 0 305 0.0 3.2 0.00 0.00 0.00 99 1015.0
20200219014632 0 305 1.6 3.2 0.00 0.00 0.00 99 1015.2
20200219013159 0 314 0.0 4.8 0.00 0.00 0.00 99 1015.5
20200219011639 0 271 0.0 1.6 0.00 0.00 0.00 99 1015.5
20200219010134 0 271 0.0 1.6 0.00 0.00 0.00 99 1015.7
20200219004653 0 274 0.0 4.8 0.00 0.00 0.00 98 1016.2
20200219003210 0 274 0.0 1.6 0.00 0.00 0.00 98 1017.1